Regional Weather Roundup
Issued by NWS Wakefield, VA

Home | Current Version | Previous Version | Graphics & Text | Print | Product List | Glossary On
Versions: 1 2 3 4 5 6 7 8 9 10 11 12 13 14 15 16 17 18 19 20 21 22 23 24 25 26 27
000
ASUS41 KAKQ 242115
RWRAKQ

REGIONAL WEATHER ROUNDUP
NATIONAL WEATHER SERVICE WAKEFIELD VA
500 PM EDT MON JUL 24 2017

Note: "fair" indicates few or no clouds below 12,000 feet with no
significant weather and/or obstructions to visibility. * = Denotes
station may not report precipitation (e.g., rain,snow,etc.),
thunder or fog.

VAZ042-051-052>054-056-242200-
NORTHERN VIRGINIA

CITY           SKY/WX    TMP DP  RH WIND       PRES   REMARKS
WASH NATIONAL  PTSUNNY   88  73  61 S12       29.81S HX  95
DULLES         CLOUDY    86  71  60 S16G25    29.82S
FORT BELVOIR   CLOUDY    86  71  59 SE8       29.81F
QUANTICO       PTSUNNY   89  72  56 SW8       29.82F HX  96
FREDERICKSBRG* PTSUNNY   90  71  53 MISG      29.82S HX  95
STAFFORD*      PTSUNNY   88  69  52 S3        29.87S
WARRENTON      MOSUNNY   87  69  54 SW5       29.82F
CULPEPER*      PTSUNNY   89  72  58 SW7       29.83F HX  96
MANASSAS*      PTSUNNY   87  72  60 S15       29.82S
LEESBURG*      SUNNY     91  72  52 W5        29.83S HX  98
WINCHESTER     MOSUNNY   88  61  40 W8        29.82F
FRONT ROYAL*   CLEAR     91  59  33 W6G17     29.82F
LURAY*         PTCLDY    91  59  33 W6        29.84S
$$

VAZ048-049-060>072-079>083-242200-
CENTRAL AND SOUTH CENTRAL VIRGINIA

CITY           SKY/WX    TMP DP  RH WIND       PRES   REMARKS
RICHMOND       PTSUNNY   94  65  38 VRB7      29.83F HX  96
CHESTERFIELD*  NOT AVBL
PETERSBURG*    PTSUNNY   90  64  42 CALM      29.84F
HANOVER        MOSUNNY   91  65  41 SW8       29.84F
TAPPAHANNOCK*  MOSUNNY   91  55  28 S5        29.84F
QUINTON*       MOCLDY    90  69  50 CALM      29.83S HX  95
CHARLOTTSVILLE TSTM      80  72  76 E14       29.84S
GORDONSVILLE*  PTCLDY    89  70  52 S10       29.82F
ORANGE*        PTSUNNY   90  70  51 SW3       29.83F HX  95
LOUISA*        MOSUNNY   90  63  40 SW5       29.84S
BUMPASS*       FAIR      91  70  51 SW8       29.83F HX  96
FARMVILLE*     SUNNY     94  55  26 SW9       29.85S
CREWE*         FAIR      93  57  29 W7        29.85F
FORT PICKETT*  FAIR     N/A N/A N/A W10       29.86S
CHASE CITY*    FAIR      93  67  41 SW5       29.87F HX  96
CLARKSVILLE*   FAIR      90  68  48 NW3       29.87S
SOUTH HILL*    SUNNY     91  70  49 W6        29.92F HX  97
LAWRENCEVILLE* FAIR      92  67  43 W7        29.86S HX  96
EMPORIA*       MOSUNNY   91  68  46 W7        29.86S HX  95
$$

VAZ088>098-242200-
SOUTHEAST VIRGINIA

CITY           SKY/WX    TMP DP  RH WIND       PRES   REMARKS
NORFOLK        MOSUNNY   89  73  59 SW9       29.85S HX  97
VIRGINIA BEACH PTSUNNY   87  73  62 SW10      29.84F
NORFOLK NAVAL  PTSUNNY   90  73  57 SW8       29.86S HX  98
WEST POINT*    MOSUNNY   91  65  42 CALM      29.84S
SALUDA*        FAIR      89  75  64 N3        29.83F HX  99
NEWPORT NEWS   SUNNY     91  72  53 SW12      29.83F HX  98
LANGLEY AFB    MOSUNNY   90  74  59 SW10      29.84S HX 100
FORT EUSTIS    SUNNY     93  75  54 S8        29.81F HX 104
WILLIAMSBURG*  SUNNY     97  73  46 CALM      29.84S HX 107
HR EXEC AP*    FAIR      88  73  62 W8        29.82S HX  96
FRANKLIN*      NOT AVBL
US460-WAKEFLD  SUNNY     94  70  45 SW7       29.84S HX 100
$$

VAZ020-022-025-037-045-242200-
WEST CENTRAL AND SOUTHWEST VIRGINIA

CITY           SKY/WX    TMP DP  RH WIND       PRES   REMARKS
STAUNTON*      MOSUNNY   91  63  38 SW9G16    29.88F
WAYNESBORO*    MOCLDY    89  65  45 SW7G18    29.89F
HOT SPRINGS VA MOSUNNY   77  50  38 W9        30.06F
LYNCHBURG      MOSUNNY   85  64  49 SW6       29.90F
DANVILLE       SUNNY     89  71  55 SW9       29.89F HX  95
SOUTH BOSTON*  FAIR      92  67  43 S8        29.88S HX  95
MARTINSVILLE   SUNNY     90  66  44 CALM      29.93S
ROANOKE        MOSUNNY   91  63  39 W9        29.93S
BLACKSBURG     MOSUNNY   86  61  42 W6        30.01S
DUBLIN*        SUNNY     87  51  28 NW7       30.00S
MARION*        MOSUNNY   83  64  54 W9        30.05S
HILLSVILLE*    MOSUNNY   84  54  35 CALM      30.02F
RICHLANDS*     MOCLDY    81  64  55 W7        30.05S
WISE*          PTSUNNY   81  63  54 S7        30.05S
ABINGDON*      MOSUNNY   85  64  48 W7        30.02S
$$

MDZ021>025-VAZ099-100-242200-
SOUTHERN MARYLAND AND THE DELMARVA PENINSULA

CITY           SKY/WX    TMP DP  RH WIND       PRES   REMARKS
PATUXENT RIVER PTSUNNY   88  69  53 VRB7      29.83S
BAY BRIDGE APT NOT AVBL
LEONARDTOWN    PTSUNNY   86  66  51 SW6       29.84F
DOVER          CLOUDY    88  85  90 W6        29.79S HX 112
GEORGETOWN     PTSUNNY   87  71  58 SW8       29.83S
EASTON         MOSUNNY   88  68  51 SW6       29.86S
CAMBRIDGE      MOSUNNY   86  72  62 SW5       29.83S
SALISBURY      MOSUNNY   86  70  58 W8        29.83S
OCEAN CITY     MOSUNNY   86  74  67 NW8       29.82S
WALLOPS ISLAND SUNNY     87  71  58 W13       29.84S
ACCOMACK*      SUNNY     88  73  59 NW9       29.84F HX  95
$$

NCZ012>017-030>032-242200-
NORTH CENTRAL AND EASTERN NORTH CAROLINA

CITY           SKY/WX    TMP DP  RH WIND       PRES   REMARKS
ROANOKE RAPIDS MOCLDY    90  75  62 S7        29.86F HX 100
RALEIGH        MOSUNNY   92  70  48 VRB6      29.89F HX  97
ELIZABETH CITY MOSUNNY   87  77  72 SW12      29.87F HX  99
AHOSKIE*         N/A     85  76  74 S5        29.87F HX  95
EDENTON*       SUNNY     89  76  66 CALM      29.88S HX 101
CURRITUCK*     PTSUNNY   88  74  64 SW8G17    29.87F HX  97
KILL DEVIL HLS SUNNY     85  74  67 W7        29.86F
MANTEO         SUNNY     87  74  66 W9        29.88F HX  96
CAPE HATTERAS  CLOUDY    82  75  79 SW12G18   29.90F
TARBORO*       NOT AVBL
GOLDSBORO      MOSUNNY   91  75  59 SW8       29.88F HX 101
WASHINGTON     SUNNY     88  74  62 SW9       29.89S HX  96
GREENVILLE     SUNNY     90  73  58 W5        29.91S HX  98
NEW BERN       CLOUDY    90  75  61 W12       29.89F HX 100
WILMINGTON     CLOUDY    87  77  72 SW5       29.90F HX  99
$$

VAZ048-242200-
ELSEWHERE

CITY           SKY/WX    TMP DP  RH WIND       PRES   REMARKS
HARRISBURG PA  MOSUNNY   85  66  53 VRB7      29.77F
BALTIMORE      PTSUNNY   90  66  45 NW7       29.80F
ANNAPOLIS      SUNNY     91  67  44 NW5       29.80F
ANDREWS AFB    MOSUNNY   85  71  61 SW15      29.82S
PHILADELPHIA   MOSUNNY   87  67  51 SW9       29.79F
HENDERSON NC   SUNNY     89  67  47 W7        29.89F
GREENSBORO     PTSUNNY   88  69  53 VRB6      29.92F
ROCKY MOUNT    SUNNY     90  74  59 W7        29.88F HX  99
$$

VAZ100-242200-
MARINE

STATION/POSITION TIME  TEMP    WIND        PRES    WAVE   SWELL
                       AIR SEA DIR/SP/G            HT/PER HT/PER
                 (UTC) (F)     (DEG/KT/KT) (MB)    (FT/S) (FT/S)
BRANDYWINE LGT   2048           CALM  /  2   N/A
CAPE MAY NJ      2048   85 77  310/  4/  5 1009.3R
LEWES DE         2048   85 73  270/ 11/ 14 1009.6R
15NM E FENWICK I 2050   76 75  210/  8/ 10 1010.3S   3/ 6   3/ 6
OCEAN-CITY-INLET 2048   84 76  340/  6/  7 1010.3R
WACHAPREAGUE VA  2048   88 87  230/  7/ 12 1010.5R
THOMAS POINT MD  2100   84 83  170/ 12/ 13   N/A
GOOSES REEF MD   2050   85     240/ 10/ 14 1010.4F
COVE POINT MD    2048   85     230/  7/ 11 1010.6F
SOLOMONS ISLAND  2048   87 84  260/  7/ 11   N/A
BISHOPS HEAD MD  2048   84 84  260/  7/  8 1010.6S
PINEY POINT MD   2042             CALM       N/A
POTOMAC MD       2050   86     300/  2/  2 1009.2F
CAMBRIDGE MD     2042   87 87              1010.9F
LEWISETTA VA     2048   85 84  100/  3/  3 1010.1F
RAPPAHANNOCK LGT 2042          170/  7/  8 1011.2S
STINGRAY PT      2050   86     170/  6/  8 1011.2R
YORK RVR RNG VA  2048   85     160/  8/ 10 1010.6F
YORKTOWN VA      2048   89 83  190/  7/ 10 1009.8F
JAMESTOWN VA     2050           90/  4/  6   N/A
DOMINION TERM VA 2048   86     210/  8/  9 1010.7F
KIPTOPEKE VA     2048      80  160/  3/  3   N/A
CHES BAY BRIDGE  2048   83 78   70/  4/  5 1010.7S
CAPE HENRY VA    2048   83     100/  7/  7   N/A
WILLOUBY STN VA  2048   87     230/  9/ 10 1010.7S
S CRANEY ISL VA  2048   87     230/  4/  8 1010.6S
CAPE HENRY BUOY  2030      69                N/A     2/10
1ST LANDING BUOY 2050   85                 1010.6F
64NM E OF VA BCH 2050   80 79  220/ 10/ 12 1012.2S   4/ 6   3/ 6
DUCK PIER NC     2048   85 62  240/ 10/ 12 1011.1F
44100 DUCK FRF   2005      78                N/A     3/ 8
44056 DUCK FRF   2100      73                N/A     2/ 7
OREGON INLET NC  2048          190/ 19/ 23   N/A
HATTERAS NC      2048   81 78  220/  9/ 16 1012.5F
DIAMOND SHLS NC  2050   83 84  220/ 19/ 23 1012.5F   7/ 7
CAPE LOOKOUT NC  2000   84     210/ 11/ 15 1012.8F
$$




USA.gov is the U.S. government's official web portal to all federal, state and local government web resources and services.